ONEWEB-0159

Last updated on Sun Apr 25 2021 00:02:03 GMT+0000 (Coordinated Universal Time)

1 48062U 21025W 21114.58336806 -.01054002 00000-0 -41357-1 0 9993 2 48062 87.4164 339.3474 0008129 132.2758 98.2663 15.28557498 1787

Satellite not in orbit